[Iaude] MPEC E39: 2024 EX [a=0.81,e=0.33,i=5.9,H=27.6]
    mpec at cfa.harvard.edu 
    mpec at cfa.harvard.edu
       
    Mon Mar  4 09:02:10 EST 2024
    
    
  
M.P.E.C. 2024-E39                                 Issued 2024 March 4, 14:00 UT
     The Minor Planet Electronic Circulars contain information on unusual
         minor planets, routine data on comets and natural satellites,
         and occasional editorial announcements.  They are published
    on behalf of Division F of the International Astronomical Union by the
          Minor Planet Center, Smithsonian Astrophysical Observatory,
                          Cambridge, MA 02138, U.S.A.
			  
             Prepared using the Tamkin Foundation Computer Network
                              MPC at CFA.HARVARD.EDU
            URL https://www.minorplanetcenter.net/    ISSN 1523-6714
                                    2024 EX                                     
Observations:
     K24E00X* C2024 03 02.29071909 16 25.237+24 54 11.58         20.53wXEE039F52
     K24E00X  C2024 03 02.30243909 16 17.698+24 56 03.58         21.11wXEE039F52
     K24E00X  C2024 03 02.31414909 16 09.985+24 57 56.52         20.77wXEE039F52
     K24E00X  C2024 03 02.46393209 14 33.549+25 20 08.99         21.03GVEE039F51
     K24E00X  C2024 03 02.46457809 14 33.117+25 20 14.70         20.83GVEE039F51
     K24E00X KC2024 03 03.16801009 09 41.609+26 50 27.92         21.37GVEE039I52
     K24E00X KC2024 03 03.16995409 09 40.590+26 50 41.50         21.21GVEE039I52
     K24E00X KC2024 03 03.17608009 09 37.537+26 51 26.53         21.05GVEE039I52
     K24E00X KC2024 03 04.11900909 04 02.35 +28 25 00.4          21.5 GVEE039H21
     K24E00X KC2024 03 04.12189709 04 01.21 +28 25 15.8          21.5 GVEE039H21
     K24E00X KC2024 03 04.12329509 04 00.66 +28 25 23.3          21.3 GVEE039H21
     K24E00X KC2024 03 04.12469209 04 00.09 +28 25 30.5          21.9 GVEE039H21
Observer details:
F51 Pan-STARRS 1, Haleakala.  Observers J. Herman, T. Lowe, P. Minguez, A.
    Schultz, I. Smith.  Measurers K. Chambers, T. de Boer, J. Fairlamb, H.
    Gao, M. Huber, C.-C. Lin, E. Magnier, Y. Ramanjooloo, R. Wainscoat, R.
    Weryk.  1.8-m Ritchey-Chretien + CCD.
F52 Pan-STARRS 2, Haleakala.  Observers J. Herman, T. Lowe, P. Minguez, A.
    Schultz, I. Smith.  Measurers K. Chambers, T. de Boer, J. Fairlamb, H.
    Gao, M. Huber, C.-C. Lin, E. Magnier, Y. Ramanjooloo, R. Wainscoat, R.
    Weryk.  1.8-m Ritchey-Chretien + CCD.
H21 Astronomical Research Observatory, Westfield.  Observer R. Holmes.
    Measurers T. Linder, R. Holmes, L. Horn.  0.76-m f/3.0 astrograph + CCD.
I52 Steward Observatory, Mt. Lemmon Station.  Observers T. Beuden, J. K.
    Hogan.  Measurers T. Beuden, V. F. Carvajal, D. Fay, J. B. Fazekas, D. C.
    Fuls, A. R. Gibbs, A. D. Grauer, H. Groeller, J. K. Hogan, R. A. Kowalski,
    S. M. Larson, G. J. Leonard, D. Rankin, R. L. Seaman, F. C. Shelly, K. W.
    Wierzchos.  1.0-m prime focus + CCD.
Orbital elements:
2024 EX                                                  Earth MOID = 0.0058 AU
Epoch 2024 Mar. 31.0 TT = JDT 2460400.5                 MPC                     
M 165.89104              (2000.0)            P               Q                  
n   1.34997998     Peri.  211.55230     +0.98190825     -0.18578762             
a   0.8108076      Node   159.06143     +0.18794531     +0.93265724             
e   0.3295104      Incl.    5.87740     +0.02308140     +0.30924656             
P   0.73           H   27.67          G   0.15           U   7                  
Residuals in seconds of arc
240302 F52  0.5-  0.8+    240302 F51  0.3-  0.2+    240304 H21  0.3-  0.2+
240302 F52  0.6+  0.6-    240303 I52  0.1+  0.0     240304 H21  0.0   0.1+
240302 F52  0.2-  0.1+    240303 I52  0.4-  0.4-    240304 H21  0.2+  0.0
240302 F51  0.2+  0.2-    240303 I52  0.5+  0.5+    240304 H21  0.1+  0.3-
Ephemeris:
2024 EX                  a,e,i = 0.81, 0.33, 6                   q = 0.5436
Date    TT    R. A. (2000) Decl.     Delta      r    Elong.  Phase     V
2024 02 03    20 12 38.7 -39 53 03   0.1093  0.8882    25.5   151.4    31.3
...
2024 02 18    19 31 35.0 -46 28 00   0.03804 0.9625    46.9   131.5    26.3
...
2024 02 26    12 15 05.2 -34 25 38   0.0080970.9951   130.2    49.4    19.0
...
2024 03 03    09 10 42.5 +26 31 12   0.02887 1.0160   148.2    30.9    21.3
2024 03 04    09 04 35.2 +28 15 24   0.03338 1.0192   145.2    33.8    21.7
2024 03 05    08 59 51.9 +29 33 21   0.03793 1.0223   142.7    36.1    22.1
...
2024 03 11    08 46 05.6 +33 15 54   0.06582 1.0391   132.6    44.7    23.6
...
2024 03 19    08 42 57.2 +34 35 37   0.1037  1.0568   123.9    51.5    24.8
...
2024 04 03    08 51 20.6 +34 28 10   0.1742  1.0756   111.4    59.9    26.2
A. U. Tomatic                (C) Copyright 2024 MPC           M.P.E.C. 2024-E39
    
    
More information about the Iaude
mailing list